TimePST,TemperatureF,Dew PointF,Humidity,Sea Level PressureIn,VisibilityMPH,Wind Direction,Wind SpeedMPH,Gust SpeedMPH,PrecipitationIn,Events,Conditions,WindDirDegrees,DateUTC
12:15 AM,35.6,30.2,81,30.03,7.0,Calm,Calm,-,N/A,,Clear,0,2013-02-18 08:15:00
12:35 AM,35.6,30.2,81,30.03,7.0,West,5.8,-,N/A,,Clear,260,2013-02-18 08:35:00
12:55 AM,35.6,28.4,75,30.03,8.0,WNW,3.5,-,N/A,,Clear,290,2013-02-18 08:55:00
1:15 AM,33.8,26.6,75,30.03,9.0,NNE,5.8,-,N/A,,Clear,20,2013-02-18 09:15:00
1:35 AM,32.0,26.6,80,30.03,10.0,Calm,Calm,-,N/A,,Clear,0,2013-02-18 09:35:00
1:55 AM,32.0,24.8,75,30.02,9.0,Calm,Calm,-,N/A,,Clear,0,2013-02-18 09:55:00
2:15 AM,28.4,24.8,86,30.01,9.0,Calm,Calm,-,N/A,,Clear,0,2013-02-18 10:15:00
2:35 AM,28.4,23.0,80,30.01,10.0,Calm,Calm,-,N/A,,Clear,0,2013-02-18 10:35:00
2:55 AM,24.8,21.2,86,30.01,10.0,Calm,Calm,-,N/A,,Clear,0,2013-02-18 10:55:00
3:15 AM,26.6,21.2,80,30.00,10.0,SE,5.8,-,N/A,,Clear,130,2013-02-18 11:15:00
3:35 AM,26.6,23.0,86,30.00,10.0,Calm,Calm,-,N/A,,Clear,0,2013-02-18 11:35:00
3:55 AM,26.6,23.0,86,30.00,10.0,Calm,Calm,-,N/A,,Clear,0,2013-02-18 11:55:00
4:15 AM,26.6,23.0,86,30.00,8.0,ENE,3.5,-,N/A,,Clear,70,2013-02-18 12:15:00
4:35 AM,26.6,23.0,86,30.00,9.0,ENE,3.5,-,N/A,,Clear,60,2013-02-18 12:35:00
4:55 AM,26.6,24.8,93,30.01,9.0,ESE,3.5,-,N/A,,Clear,120,2013-02-18 12:55:00
5:15 AM,26.6,23.0,86,30.01,9.0,Calm,Calm,-,N/A,,Clear,0,2013-02-18 13:15:00
5:35 AM,24.8,23.0,93,30.01,8.0,Calm,Calm,-,N/A,,Clear,0,2013-02-18 13:35:00
5:55 AM,24.8,23.0,93,30.00,9.0,East,5.8,-,N/A,,Clear,100,2013-02-18 13:55:00
6:15 AM,26.6,23.0,86,30.01,9.0,East,4.6,-,N/A,,Clear,100,2013-02-18 14:15:00
6:35 AM,26.6,23.0,86,30.00,8.0,ESE,3.5,-,N/A,,Clear,110,2013-02-18 14:35:00
6:55 AM,26.6,23.0,86,30.00,7.0,Calm,Calm,-,N/A,,Clear,0,2013-02-18 14:55:00
7:15 AM,26.6,23.0,86,30.01,7.0,Calm,Calm,-,N/A,,Clear,0,2013-02-18 15:15:00
7:35 AM,32.0,26.6,80,30.01,8.0,East,3.5,-,N/A,,Clear,90,2013-02-18 15:35:00
7:55 AM,32.0,26.6,80,30.01,7.0,Calm,Calm,-,N/A,,Clear,0,2013-02-18 15:55:00
8:15 AM,35.6,26.6,70,30.02,9.0,WSW,6.9,-,N/A,,Clear,250,2013-02-18 16:15:00
8:35 AM,41.0,26.6,57,30.02,10.0,Calm,Calm,-,N/A,,Clear,0,2013-02-18 16:35:00
8:55 AM,46.4,24.8,43,30.01,10.0,East,9.2,-,N/A,,Clear,90,2013-02-18 16:55:00
9:15 AM,53.6,21.2,28,30.01,10.0,East,11.5,-,N/A,,Clear,100,2013-02-18 17:15:00
9:35 AM,53.6,19.4,26,30.01,10.0,East,11.5,-,N/A,,Clear,90,2013-02-18 17:35:00
9:55 AM,55.4,19.4,25,30.00,10.0,East,12.7,-,N/A,,Clear,90,2013-02-18 17:55:00
10:15 AM,55.4,19.4,25,30.00,9.0,East,12.7,17.3,N/A,,Clear,90,2013-02-18 18:15:00
10:35 AM,57.2,19.4,23,30.00,9.0,East,13.8,19.6,N/A,,Clear,80,2013-02-18 18:35:00
10:55 AM,57.2,19.4,23,30.00,10.0,East,11.5,19.6,N/A,,Clear,90,2013-02-18 18:55:00
11:15 AM,57.2,21.2,25,30.00,8.0,ESE,12.7,18.4,N/A,,Clear,120,2013-02-18 19:15:00
11:35 AM,57.2,21.2,25,29.99,10.0,East,15.0,19.6,N/A,,Clear,80,2013-02-18 19:35:00
11:55 AM,59.0,23.0,25,29.98,10.0,East,11.5,19.6,N/A,,Clear,90,2013-02-18 19:55:00
12:15 PM,59.0,23.0,25,29.97,10.0,East,12.7,-,N/A,,Clear,100,2013-02-18 20:15:00
12:35 PM,59.0,21.2,23,29.96,10.0,ESE,12.7,17.3,N/A,,Clear,120,2013-02-18 20:35:00
12:55 PM,59.0,21.2,23,29.95,10.0,ENE,12.7,16.1,N/A,,Clear,70,2013-02-18 20:55:00
1:15 PM,60.8,19.4,20,29.95,10.0,North,4.6,-,N/A,,Clear,350,2013-02-18 21:15:00
1:35 PM,57.2,28.4,33,29.94,9.0,NW,17.3,23.0,N/A,,Clear,310,2013-02-18 21:35:00
1:55 PM,59.0,28.4,31,29.94,10.0,NW,13.8,20.7,N/A,,Clear,310,2013-02-18 21:55:00
2:15 PM,59.0,28.4,31,29.93,10.0,NW,17.3,21.9,N/A,,Clear,310,2013-02-18 22:15:00
2:35 PM,59.0,28.4,31,29.93,10.0,NW,16.1,-,N/A,,Clear,320,2013-02-18 22:35:00
2:55 PM,57.2,28.4,33,29.93,10.0,NW,16.1,-,N/A,,Clear,320,2013-02-18 22:55:00
3:15 PM,57.2,28.4,33,29.92,10.0,NW,17.3,20.7,N/A,,Clear,310,2013-02-18 23:15:00
3:35 PM,55.4,30.2,38,29.92,10.0,NW,16.1,-,N/A,,Clear,310,2013-02-18 23:35:00
3:55 PM,55.4,32.0,41,29.92,10.0,NW,15.0,21.9,N/A,,Clear,310,2013-02-18 23:55:00
4:15 PM,53.6,32.0,44,29.92,10.0,NW,13.8,-,N/A,,Clear,310,2013-02-19 00:15:00
4:35 PM,53.6,32.0,44,29.91,9.0,NW,12.7,17.3,N/A,,Clear,310,2013-02-19 00:35:00
4:55 PM,50.0,33.8,54,29.91,9.0,NW,9.2,-,N/A,,Clear,320,2013-02-19 00:55:00
5:15 PM,50.0,33.8,54,29.91,9.0,NW,8.1,-,N/A,,Clear,310,2013-02-19 01:15:00
5:35 PM,48.2,32.0,54,29.91,10.0,NW,8.1,-,N/A,,Clear,310,2013-02-19 01:35:00
5:55 PM,46.4,32.0,57,29.92,10.0,NW,8.1,-,N/A,,Clear,320,2013-02-19 01:55:00
6:15 PM,44.6,32.0,61,29.92,10.0,WNW,5.8,-,N/A,,Clear,300,2013-02-19 02:15:00
6:35 PM,42.8,32.0,66,29.92,10.0,Calm,Calm,-,N/A,,Clear,0,2013-02-19 02:35:00
6:55 PM,42.8,32.0,66,29.92,10.0,Calm,Calm,-,N/A,,Clear,0,2013-02-19 02:55:00
7:15 PM,41.0,28.4,61,29.92,10.0,Calm,Calm,-,N/A,,Clear,0,2013-02-19 03:15:00
7:35 PM,39.2,28.4,65,29.92,10.0,Calm,Calm,-,N/A,,Clear,0,2013-02-19 03:35:00
7:55 PM,37.4,28.4,70,29.92,10.0,Calm,Calm,-,N/A,,Clear,0,2013-02-19 03:55:00
8:15 PM,37.4,28.4,70,29.92,10.0,Calm,Calm,-,N/A,,Clear,0,2013-02-19 04:15:00
8:35 PM,39.2,30.2,70,29.93,9.0,West,6.9,-,N/A,,Clear,260,2013-02-19 04:35:00
9:15 PM,39.2,37.4,93,29.93,7.0,WSW,9.2,-,N/A,,Clear,250,2013-02-19 05:15:00
9:35 PM,39.2,37.4,93,29.94,7.0,West,8.1,-,N/A,,Clear,260,2013-02-19 05:35:00
9:55 PM,37.4,37.4,100,29.94,7.0,WNW,9.2,-,N/A,,Clear,300,2013-02-19 05:55:00
10:15 PM,37.4,37.4,100,29.93,7.0,NW,5.8,-,N/A,,Clear,320,2013-02-19 06:15:00
10:35 PM,33.8,32.0,93,29.93,5.0,NW,6.9,-,N/A,,Partly Cloudy,320,2013-02-19 06:35:00
10:55 PM,33.8,33.8,100,29.93,5.0,WNW,11.5,-,N/A,,Scattered Clouds,300,2013-02-19 06:55:00
11:15 PM,37.4,35.6,93,29.93,10.0,NW,12.7,-,N/A,,Mostly Cloudy,310,2013-02-19 07:15:00
11:35 PM,35.6,33.8,93,29.92,10.0,NW,11.5,-,N/A,,Overcast,320,2013-02-19 07:35:00
11:55 PM,35.6,33.8,93,29.92,10.0,NW,9.2,-,N/A,,Mostly Cloudy,320,2013-02-19 07:55:00